Regional Weather Roundup
Issued by NWS

Home | Current Version | Previous Version | Graphics & Text | Print | Product List | Glossary On
Versions: 1 2 3 4 5 6 7 8 9 10 11 12 13 14 15 16 17 18 19 20 21 22 23 24 25 26 27 28 29 30 31 32 33 34 35 36 37 38 39 40 41 42 43 44 45 46 47 48 49 50
000
ASUS45 KTFX 192119
RWRMT
MONTANA HOURLY WEATHER ROUNDUP
NATIONAL WEATHER SERVICE GREAT FALLS MT
319 PM MDT SAT APR 19 2014

NOTE: "FAIR" INDICATES FEW OR NO CLOUDS BELOW 12000 FEET WITH NO
SIGNIFICANT WEATHER AND/OR OBSTRUCTIONS TO VISIBILITY.

* THESE STATIONS ARE NOT UNDER NWS QUALITY CONTROL. THEY DO NOT
   REPORT WEATHER SUCH AS PRECIPITATION OR FOG.

MTZ001>007-043-192200-
WEST OF THE DIVIDE
CITY           SKY/WX    TMP DP  RH WIND       PRES   REMARKS
KALISPELL      PTSUNNY   57  21  25 SE12      29.87F
MISSOULA       PTSUNNY   63  18  17 VRB3      29.87F
BUTTE          PTCLDY    59  12  15 W13       29.93F
MULLAN PASS    CLOUDY    48  18  30 SW10      29.88F
* ESSEX        N/A       55  17  22 E3G13      N/A
* LINCOLN      N/A       57  16  20 W6G15      N/A
* LOOKOUT PASS N/A       55  22  28 SE11G20    N/A
* PLAINS APT   PTCLDY    64  27  25 CALM      29.86F
* POLSON       N/A       63  25  24 SW3G8      N/A
* SEELEY LAKE  N/A       57  15  19 NE4        N/A
* THOMP F APT  PTCLDY    57  10  15 S10G19     N/A
$$

MTZ008-052>055-192200-
SOUTHWEST MONTANA
CITY           SKY/WX    TMP DP  RH WIND       PRES   REMARKS
BOZEMAN        SUNNY     63   9  12 VRB3      29.92F
DILLON         SUNNY     63   9  12 SW10G22   29.92F
W YELLOWSTONE  N/A       56  18  22 SW6G14     N/A
* THREE FORKS  SUNNY     63  14  15 W8         N/A
* BOULDER HILL N/A       56  12  17 SW8G17     N/A
* MONIDA PASS  N/A       51  10  19 SW14G23    N/A
* RAYNOLDS PAS N/A       47  26  44 SE14       N/A
* WHITEHALL    N/A       67   9  10 SW14G25    N/A
* WISE RIVER   N/A       58  16  19 W11G22     N/A
$$

MTZ009>010-012-014-046-048-049-054-192200-
EAST SLOPES AND CENTRAL MONTANA
CITY           SKY/WX    TMP DP  RH WIND       PRES   REMARKS
CUT BANK       PTCLDY    57  10  15 SW24G31   29.84S
GREAT FALLS    SUNNY     63  14  15 SW18      29.86F
HELENA         SUNNY     63  10  12 E6        29.88F
MALMSTROM AFB  SUNNY     61  12  14 SW13G28   29.84F
* CONRAD       PTCLDY    61  10  13 SW5        N/A
* DEARBORN     N/A       62   9  12 SW17G24    N/A
* EAST GLACIER N/A       48  14  25 NW17G28    N/A
* MONARCH      N/A       52   3  13 S9G24      N/A
* PENDROY      N/A       58   9  14 NW8        N/A
* ROGERS PASS  N/A       51   8  17 SE16G22    N/A
* SAINT MARY   N/A       48  12  23 SW9G20     N/A
* SWEET GRASS  N/A       55   8  15 SW15G24    N/A
* WHITE SULPH  N/A       57  10  15 SW13G20    N/A
$$

MTZ011-013-016-021-035-040-045-047-050-051-192200-
NORTH CENTRAL MONTANA
CITY           SKY/WX    TMP DP  RH WIND       PRES   REMARKS
HAVRE          SUNNY     61  19  20 SW9G23    29.87F
LEWISTOWN      SUNNY     57   7  13 W7G16     29.90F
* CHINOOK      SUNNY     61  19  20 SW16G22   29.88F
* FORT BENTON  SUNNY     63  12  13 SW13      29.87F
* MALTA APT    SUNNY     61  28  29 W12       29.86F
* CHESTER      N/A       57  14  18 SW7G15     N/A
* DENTON       N/A       63  13  14 NW11G26    N/A
* GEYSER       N/A       60   9  13 W10G16     N/A
* JUDITH GAP   N/A       59   8  13 W14G22     N/A
* LOMA         N/A       61   6  11 W13        N/A
$$

MTZ017>020-022>027-061-062-192200-
NORTHEAST MONTANA
CITY           SKY/WX    TMP DP  RH WIND       PRES   REMARKS
GLASGOW        SUNNY     59  34  39 W15G20    29.91F
GLENDIVE       SUNNY     63  28  27 W17G23    29.94F
JORDAN         SUNNY     61  21  21 W9G20     29.91F
SIDNEY         SUNNY     59  34  39 W13G18    29.94F
WOLF POINT     SUNNY     61  34  36 W18       29.92F
* BEAVER HILL  N/A       59  30  33 SW16G23    N/A
* CIRCLE       N/A       59  33  38 SW10       N/A
* LINDSAY DVD  N/A       57  28  33 W14G21     N/A
* NAVAJO       N/A       51  32  48 NW12G18    N/A
* SACO         N/A       58  31  36 SW11G24    N/A
* SCOBEY APT   SUNNY     54  32  43 SW9       29.89S
$$

MTZ028>042-056>058-192200-
SOUTHCENTRAL AND SOUTHEAST MONTANA
CITY           SKY/WX    TMP DP  RH WIND       PRES   REMARKS
BAKER          SUNNY     61  27  27 W15G22    29.97F
BILLINGS       SUNNY     63  18  17 VRB6      29.93F
LIVINGSTON     SUNNY     64  18  17 SW14G20   29.90F
MILES CITY     SUNNY     61  25  25 VRB6G17   29.95F
* EKALAKA APT  SUNNY     57  21  25 SW12G18   29.97F
* LAUREL APT   SUNNY     63  18  17 N/A        N/A
* ROUNDUP APT  SUNNY     63  12  13 S9         N/A
* HYSHAM       N/A       59  16  18 SW3G11     N/A
* LAME DEER    N/A       56  19  23 SW4G12     N/A
* REED POINT   N/A       63  27  26 SE3G11     N/A
* ROSCOE HILL  N/A       62  11  13 SW9        N/A
$$

REGIONAL REPORTS...DAKOTAS
CITY           SKY/WX    TMP DP  RH WIND       PRES   REMARKS
WILLISTON      PTCLDY    57  34  42 W16G22    29.92F
DICKINSON      SUNNY     61  30  31 W20G25    29.94R
CROSBY         PTSUNNY   48  36  63 W13G23    29.93R
TIOGA          CLOUDY    50  32  50 W21G28    29.95R
WATFORD CITY   SUNNY     57  32  39 W13G22    29.91F
BISMARCK       SUNNY     66  32  28 W21G30    29.93R
GRAND FORKS    SUNNY     63  39  41 W20G30    29.85R
FARGO          PTCLDY    70  30  23 W18       29.90R
BUFFALO SD     SUNNY     63  21  20 W16G28    29.92F
RAPID CITY     PTCLDY    64  34  33 SE12G21   30.01F
$$

REGIONAL REPORTS...WYOMING/IDAHO/WASHINGTON
CITY           SKY/WX    TMP DP  RH WIND       PRES   REMARKS
GILLETTE       SUNNY     61  25  25 SW8       29.99F
SHERIDAN       PTCLDY    63  28  27 E12G20    29.94F
CODY           SUNNY     64  19  18 W10G22    29.93F
YELLOWSTONE LA SUNNY     46   7  20 VRB6G16   30.09S
SALMON         PTSUNNY   64  19  18 N5        29.87F
MULLAN PASS    CLOUDY    48  18  30 SW10      29.88S
SAND POINT     CLOUDY    55  27  34 N6        29.85F
SPOKANE        PTSUNNY   63  27  26 S17G24    29.82F
$$

REGIONAL REPORTS...ALBERTA
CITY           SKY/WX    TMP DP  RH WIND       PRES   REMARKS
CALGARY        CLOUDY    52  25  35 SE14G20   29.75F
LETHBRIDGE     CLOUDY    59  16  18 SW10G18   29.80F
MEDICINE HAT   PTCLDY    57  25  29 W10G18    29.83F
EDMONTON       PTCLDY    50  36  59 S9        29.76F
WATERTON GATE  N/A       54  18  24 SW20G28    N/A
CARDSTON       N/A       54  18  24 SW10       N/A
MILK RIVER     N/A       59  10  14 SW12       N/A
$$

REGIONAL REPORTS...SASKATCHEWAN
CITY           SKY/WX    TMP DP  RH WIND       PRES   REMARKS
SWIFT CURRENT  PTSUNNY   43  34  71 W14G21    29.87S
REGINA         CLOUDY    39  32  76 NW20      29.89R WCI  29
VAL MARIE      N/A       55  28  35 W14G25     N/A
ASSINIBOIA     N/A       43  32  65 W15        N/A
CORONACH       N/A       54  36  51 NW7        N/A

$$




USA.gov is the U.S. government's official web portal to all federal, state and local government web resources and services.